Location: Asheville, NC
(35.6000°N, 82.5500°W)
Time: 00:27:44
(UTC-04:00)

Vanguard 3 - Pass Details

Date: 12 March 2018
Orbit: 508 x 3264 km, 33.3° (Epoch: 22 June)

Event Time Altitude Azimuth Distance (km) Brightness Sun altitude
Rises 15:36:47 0° 282° (WNW) 5,837 11.8 42.6°
Reaches altitude 10° 15:41:33 10° 277° (W) 4,355 11.4 42.0°
Maximum altitude 15:51:22 41° 213° (SSW) 1,751 11.3 40.6°
Drops below altitude 10° 15:57:10 10° 144° (SE) 2,569 9.9 39.7°
Sets 15:59:18 0° 136° (SE) 3,270 10.3 39.4°
